Theta_e
280 279 278 278 277 275 274 273 273 273 271 271 270 270 270 270 270 271 272 272 273 273 273 273 274 274 274 274 274 273 274 276
279 279 278 277 275 274 273 272 272 271 271 270 270 270 270 269 270 270 271 271 271 272 272 272 272 273 273 273 273 272 273 273
279 277 276 275 274 273 272 271 271 270 270 269 269 269 268 268 269 270 270 270 270 270 270 270 270 271 271 271 272 271 271 272
277 277 276 274 273 271 270 270 270 269 268 268 267 267 267 268 268 269 269 269 269 269 268 268 269 269 270 270 270 271 271 271
277 276 275 274 272 270 269 269 268 267 266 266 267 267 267 267 267 267 267 266 266 267 267 267 267 268 269 269 270 270 271 272
277 275 273 272 270 269 267 267 267 266 266 266 266 266 266 266 266 266 265 265 265 265 265 265 266 267 267 269 270 270 270 271
277 276 274 273 269 270 267 267 267 265 266 266 265 265 264 264 264 263 263 263 263 264 264 264 266 270 272 273 272 272 272 273
276 276 274 272 271 266 266 266 265 266 264 263 264 262 262 262 262 261 261 262 263 263 263 264 265 269 272 274 273 273 273 273
276 272 270 268 267 266 266 265 265 264 262 262 262 261 261 260 259 260 261 262 262 262 263 264 265 270 272 273 273 273 274 274
273 270 268 266 266 265 265 264 263 262 261 261 260 258 258 256 258 259 261 260 260 263 262 262 263 269 272 273 273 274 275 275
270 268 266 265 265 265 264 262 261 261 260 260 259 256 256 257 257 260 259 261 262 262 262 263 263 269 272 273 272 273 274 275
268 266 266 265 264 263 262 261 260 260 259 258 258 256 256 257 258 258 259 260 260 262 263 265 266 267 271 274 272 271 271 273
266 265 265 264 264 262 261 260 259 258 257 255 254 254 258 256 256 258 258 259 260 262 263 265 266 268 271 272 274 274 272 273
265 263 263 263 262 262 260 259 257 253 252 250 254 256 257 255 257 257 259 260 261 263 262 263 266 267 270 271 274 274 273 274
264 262 260 261 260 259 258 257 251 251 254 256 256 255 257 258 259 258 259 260 263 262 262 262 265 265 268 270 270 272 271 272
265 263 260 259 257 257 255 253 253 254 256 255 254 253 256 258 257 260 262 265 264 263 264 263 263 266 271 270 268 269 271 273
264 262 260 259 257 254 252 251 250 254 254 254 254 254 256 256 256 262 265 266 267 268 267 266 269 271 271 270 270 270 270 268
262 261 259 258 255 253 250 249 249 249 252 252 253 253 253 253 254 253 257 263 264 265 267 269 268 269 269 269 267 268 265 261
261 259 258 256 254 252 249 249 247 244 251 249 250 250 250 251 252 252 252 252 254 259 264 267 267 267 267 267 263 259 261 260
259 257 256 255 252 251 250 249 245 248 247 246 246 247 248 249 250 251 251 252 253 254 258 262 264 265 264 264 257 257 258 259
Wind_Speed
15 14 8 7 7 6 4 3 3 4 4 5 6 6 8 9 11 12 12 14 15 16 16 16 15 15 15 14 15 16 14 12
14 12 10 8 7 6 3 2 3 3 5 5 6 7 9 10 11 12 13 15 16 17 18 17 17 16 16 17 18 19 17 17
14 11 9 10 8 6 4 1 3 4 5 6 7 8 9 10 12 13 14 15 17 17 18 18 18 17 18 18 17 18 19 18
12 14 12 9 7 6 4 4 4 4 3 6 7 8 10 11 12 13 15 15 16 17 18 19 19 18 18 18 19 19 19 19
14 13 11 8 8 7 5 4 3 2 3 7 8 9 10 12 13 13 13 16 16 16 18 18 19 20 20 20 19 18 17 19
17 13 11 10 7 5 3 2 1 3 5 6 9 10 10 12 13 13 14 14 16 18 17 18 17 14 18 19 19 19 19 19
17 15 12 8 7 5 3 2 4 4 6 8 10 11 12 13 13 15 15 15 16 17 18 18 14 28 31 27 18 19 19 18
19 16 11 9 7 4 3 3 2 4 6 8 10 11 12 14 13 14 15 15 17 17 18 18 19 31 32 30 18 18 18 18
14 12 10 8 7 5 3 1 3 4 5 7 9 10 13 13 13 14 13 15 16 17 17 18 17 32 32 31 19 17 20 19
13 12 11 9 8 6 3 3 4 5 6 8 9 10 13 13 14 13 14 15 15 15 17 18 19 31 31 27 16 16 21 19
15 14 12 8 8 6 4 2 3 5 7 8 9 8 11 13 14 13 13 15 14 16 15 19 21 28 30 27 13 15 14 13
14 12 11 10 8 7 5 3 2 3 5 7 8 9 9 12 13 12 13 14 15 16 15 16 18 19 30 29 14 13 14 13
14 12 11 10 8 8 6 3 1 4 5 6 7 7 8 11 13 11 12 14 15 15 14 12 17 21 24 31 27 24 14 15
14 13 10 9 8 8 6 4 4 4 3 3 7 7 9 10 12 10 10 11 13 13 14 15 14 13 28 30 29 26 17 12
14 12 10 7 6 5 5 4 4 3 4 4 6 9 9 7 7 9 9 11 12 13 14 17 15 15 14 14 14 19 17 19
13 11 11 10 8 5 4 4 3 3 4 4 4 4 9 8 7 8 9 14 13 12 13 16 16 17 28 26 17 13 15 18
12 12 11 10 9 6 4 4 3 5 4 3 4 5 6 6 10 14 18 22 22 25 22 14 28 34 33 33 28 26 27 9
14 12 11 10 9 6 4 4 4 5 3 3 5 5 5 6 6 8 14 21 22 25 29 32 32 33 33 33 28 27 22 12
14 12 11 10 8 7 5 5 5 4 3 1 3 4 5 5 6 6 8 11 13 19 25 31 33 32 33 34 22 15 18 13
13 11 11 10 8 6 5 5 5 4 3 1 2 3 4 4 4 5 7 8 9 12 18 20 30 29 29 31 13 14 14 14
Wind_Direction
184 179 174 170 160 160 184 258 290 296 287 297 294 291 291 293 291 291 292 292 290 289 287 285 281 280 277 272 268 270 266 270
186 173 169 157 162 172 181 251 287 289 276 281 297 300 296 291 293 293 292 292 291 290 289 286 284 282 277 271 272 268 268 269
183 160 164 170 174 178 185 241 253 252 278 301 300 300 296 294 296 299 295 292 291 292 292 291 288 285 279 276 272 271 269 268
173 180 176 169 174 177 179 224 234 254 288 303 300 304 301 302 299 299 295 294 295 295 291 291 289 285 278 274 272 269 269 268
186 182 170 166 173 183 194 209 247 290 304 297 309 310 301 302 301 299 300 301 299 294 292 290 289 285 283 281 278 273 268 267
189 175 171 172 173 166 177 218 300 331 314 309 311 304 306 307 301 306 309 304 299 298 295 293 286 283 282 277 273 268 264 262
186 169 172 165 155 164 178 24 9 333 326 317 312 315 309 309 316 316 313 307 302 298 296 296 289 290 290 287 276 274 273 271
180 166 157 144 143 145 77 31 350 326 313 310 314 312 318 321 321 317 312 307 306 304 302 298 294 293 290 286 276 270 264 266
167 135 125 120 105 108 89 50 348 325 311 313 320 315 323 321 323 312 310 311 310 304 301 305 302 300 298 293 281 272 267 253
144 124 123 124 125 114 105 42 3 338 327 325 328 321 323 315 316 315 312 309 301 303 311 307 300 302 303 298 285 282 281 250
128 120 118 126 120 117 101 74 340 337 331 336 329 320 311 310 310 311 303 304 306 306 304 302 296 298 310 307 293 291 309 268
120 122 122 127 132 126 137 164 246 323 332 333 326 313 301 303 304 305 307 309 303 305 311 310 305 309 311 309 316 304 297 286
124 126 132 139 141 148 165 171 75 12 346 334 309 303 310 303 298 308 309 310 312 316 325 318 312 308 313 313 311 304 294 290
133 132 141 146 156 161 149 128 71 18 347 304 304 320 310 302 305 317 315 317 317 328 326 324 316 323 311 306 310 314 304 296
136 139 144 151 135 123 127 100 79 33 20 343 340 325 315 306 313 314 320 321 328 333 330 324 326 319 310 319 313 311 307 300
150 146 148 155 140 133 118 104 99 88 43 357 333 314 307 316 310 324 323 331 336 335 329 320 329 323 335 333 328 312 300 303
145 140 150 148 137 131 122 115 102 76 41 357 328 320 318 316 317 334 348 346 346 346 347 329 338 340 344 347 349 348 349 332
152 145 146 144 135 131 125 125 105 93 50 0 337 323 325 320 321 332 336 348 350 348 350 352 352 354 356 2 3 5 12 13
139 141 143 140 139 136 134 126 106 109 67 41 312 311 307 307 323 330 342 338 336 342 348 360 360 2 3 9 0 6 12 5
133 140 145 141 136 139 142 123 106 104 80 19 299 280 293 304 322 343 345 341 335 332 344 358 356 2 7 7 12 2 2 357